Find KUIPER-00476

NORAD ID: 68874 Int'l Des: 2026-095L Owner: kuiper Country: USA Constellation: kuiper operational
LEOCIRCULAR

リアルタイム位置

3D地球を読み込み中...

KUIPER-00476について

説明を読み込み中...

次回通過

Passes for default location (London). Set your location on the main map for personalized predictions.

高度履歴

Loading altitude history...

軌道要素

1 68874U 26095L 26121.83336806 .00056346 00000-0 15692-2 0 9993
2 68874 51.8727 106.5529 0010009 127.3094 15.6599 15.36209872 1783
Epoch: May 1, 2026 • Age: 5 hours

現在のステータス

高度 452.5 km
速度 7.65 km/s
衛星直下点 32.51°N, 25.95°E
タイプ internet

Most Searched